START_TIME,STEP,MOV.,M34,t_acc.,L5,t_acc.,L18,t_acc.,L14,t_acc.
1980-11-14 18:00:13.280 ,6,0,0.,12.0,0.,12.0,0.,12.0,0.,12.0
1980-11-14 18:00:25.280 ,6,0,0.,12.0,0.,12.0,0.,12.0,0.,12.0
1980-11-14 18:00:37.280 ,5,1,0.,12.0,0.,12.0,0.,12.0,0.,12.0
1980-11-14 18:00:49.280 ,5,1,0.,12.0,0.,12.0,0.,12.0,0.,12.0
1980-11-14 18:01:01.280 ,5,0,0.,12.0,0.,12.0,0.,12.0,0.,12.0
1980-11-14 18:01:13.280 ,5,0,0.,12.0,0.,12.0,0.,12.0,0.,12.0
1980-11-14 18:01:25.280 ,4,1,0.,12.0,0.,12.0,0.,12.0,0.,12.0
1980-11-14 18:01:37.280 ,4,1,0.,12.0,0.,12.0,0.,12.0,0.,12.0
1980-11-14 18:01:49.280 ,4,0,0.,12.0,0.,12.0,0.,12.0,0.,12.0
1980-11-14 18:02:01.280 ,4,0,0.,12.0,0.,12.0,0.,12.0,0.,12.0
1980-11-14 18:02:13.270 ,3,1,0.,12.0,0.,12.0,0.,12.0,0.,12.0
1980-11-14 18:02:25.280 ,3,1,0.,12.0,0.,12.0,0.,12.0,0.,12.0
1980-11-14 18:02:37.270 ,3,0,0.,12.0,0.,12.0,0.,12.0,0.,12.0
1980-11-14 18:02:49.280 ,3,0,0.,12.0,0.,12.0,0.,12.0,0.,12.0
1980-11-14 18:03:01.270 ,2,1,0.,12.0,0.,12.0,0.,12.0,0.,12.0
1980-11-14 18:03:13.280 ,2,1,0.,12.0,0.,12.0,0.,12.0,0.,12.0
1980-11-14 18:03:25.270 ,2,0,0.,12.0,0.,12.0,0.,12.0,0.,12.0
1980-11-14 18:03:37.280 ,2,0,0.,12.0,0.,12.0,0.,12.0,0.,12.0
1980-11-14 18:03:49.270 ,1,1,0.,12.0,0.,12.0,0.,12.0,0.,12.0
1980-11-14 18:04:01.280 ,1,1,0.,12.0,0.,12.0,0.,12.0,0.,12.0
1980-11-14 18:04:13.270 ,1,0,0.,12.0,0.,12.0,0.,12.0,0.,12.0
1980-11-14 18:04:25.270 ,1,0,0.,12.0,0.,12.0,0.,12.0,0.,12.0
1980-11-14 18:04:37.280 ,0,1,0.,12.0,0.,12.0,0.,12.0,0.,12.0
1980-11-14 18:04:49.280 ,0,1,0.,12.0,0.,12.0,0.,12.0,0.,12.0
1980-11-14 18:05:01.280 ,0,0,0.,12.0,0.,12.0,0.,12.0,0.,12.0
1980-11-14 18:05:13.280 ,0,0,0.,12.0,0.,12.0,0.,12.0,0.,12.0
1980-11-14 18:05:25.280 ,0,1,0.,12.0,0.,12.0,0.,12.0,0.,12.0
1980-11-14 18:05:37.280 ,0,1,0.,12.0,0.,12.0,0.,12.0,0.,12.0
1980-11-14 18:05:49.280 ,0,0,0.,12.0,0.,12.0,0.,12.0,0.,12.0
1980-11-14 18:06:01.280 ,0,0,0.,12.0,0.,12.0,0.,12.0,0.,12.0
1980-11-14 18:06:13.280 ,1,1,0.,12.0,0.,12.0,0.,12.0,0.,12.0
1980-11-14 18:06:25.280 ,1,1,0.,12.0,0.,12.0,0.,12.0,0.,12.0
1980-11-14 18:06:37.280 ,1,0,0.,12.0,0.,12.0,0.,12.0,0.,12.0
1980-11-14 18:06:49.280 ,1,0,0.,12.0,0.,12.0,0.,12.0,0.,12.0
1980-11-14 18:07:01.280 ,2,1,0.,12.0,0.,12.0,0.,12.0,0.,12.0
1980-11-14 18:07:13.280 ,2,1,0.,12.0,0.,12.0,0.,12.0,0.,12.0
1980-11-14 18:07:25.280 ,2,0,0.,12.0,0.,12.0,0.,12.0,0.,12.0
1980-11-14 18:07:37.280 ,2,0,0.,12.0,0.,12.0,0.,12.0,0.,12.0
1980-11-14 18:07:49.280 ,3,1,0.,12.0,0.,12.0,0.,12.0,0.,12.0
1980-11-14 18:08:01.280 ,3,1,0.,12.0,0.,12.0,0.,12.0,0.,12.0
1980-11-14 18:08:13.280 ,3,0,0.,12.0,0.,12.0,0.,12.0,0.,12.0
1980-11-14 18:08:25.280 ,3,0,0.,12.0,0.,12.0,0.,12.0,0.,12.0
1980-11-14 18:08:37.280 ,4,1,0.,12.0,0.,12.0,0.,12.0,0.,12.0
1980-11-14 18:08:49.280 ,4,1,0.,12.0,0.,12.0,0.,12.0,0.,12.0
1980-11-14 18:09:01.280 ,4,0,0.,12.0,0.,12.0,0.,12.0,0.,12.0
1980-11-14 18:09:13.280 ,4,0,0.,12.0,0.,12.0,0.,12.0,0.,12.0
1980-11-14 18:09:25.280 ,5,1,0.,12.0,0.,12.0,0.,12.0,0.,12.0
1980-11-14 18:09:37.280 ,5,1,0.,12.0,0.,12.0,0.,12.0,0.,12.0
1980-11-14 18:09:49.280 ,5,0,0.,12.0,0.,12.0,0.,12.0,0.,12.0
1980-11-14 18:10:01.280 ,5,0,0.,12.0,0.,12.0,0.,12.0,0.,12.0
1980-11-14 18:10:13.280 ,6,1,0.,12.0,0.,12.0,0.,12.0,0.,12.0
1980-11-14 18:10:25.280 ,6,1,0.,12.0,0.,12.0,0.,12.0,0.,12.0
1980-11-14 18:10:37.280 ,6,0,0.,12.0,0.,12.0,0.,12.0,0.,12.0
1980-11-14 18:10:49.280 ,6,0,0.,12.0,0.,12.0,0.,12.0,0.,12.0
1980-11-14 18:11:01.280 ,7,1,0.,12.0,0.,12.0,0.,12.0,0.,12.0
1980-11-14 18:11:13.280 ,7,1,0.,12.0,1.,12.0,0.,12.0,0.,12.0
1980-11-14 18:11:25.280 ,7,0,0.,12.0,3.,12.0,0.,12.0,0.,12.0
1980-11-14 18:11:37.280 ,7,0,0.,12.0,3.,12.0,0.,12.0,0.,12.0
1980-11-14 18:11:49.280 ,7,1,0.,12.0,4.,12.0,0.,12.0,0.,12.0
1980-11-14 18:12:01.280 ,7,1,0.,12.0,3.,12.0,0.,12.0,0.,12.0
1980-11-14 18:12:13.280 ,7,0,0.,12.0,6.,12.0,0.,12.0,0.,12.0
1980-11-14 18:12:25.280 ,7,0,0.,12.0,7.,12.0,0.,12.0,0.,12.0
1980-11-14 18:12:37.280 ,6,1,0.,12.0,4.,12.0,0.,12.0,0.,12.0
1980-11-14 18:12:49.280 ,6,1,0.,12.0,2.,12.0,0.,12.0,0.,12.0
1980-11-14 18:13:01.280 ,6,0,0.,12.0,0.,12.0,0.,12.0,0.,12.0
1980-11-14 18:13:13.280 ,6,0,0.,12.0,0.,12.0,0.,12.0,0.,12.0
1980-11-14 18:13:25.280 ,5,1,0.,12.0,0.,12.0,0.,12.0,0.,12.0
1980-11-14 18:13:37.280 ,5,1,0.,12.0,0.,12.0,0.,12.0,0.,12.0
1980-11-14 18:13:49.280 ,5,0,0.,12.0,0.,12.0,0.,12.0,0.,12.0
1980-11-14 18:14:01.280 ,5,0,0.,12.0,0.,12.0,0.,12.0,0.,12.0
1980-11-14 18:14:13.280 ,4,1,0.,12.0,0.,12.0,0.,12.0,0.,12.0
1980-11-14 18:14:25.280 ,4,1,0.,12.0,0.,12.0,0.,12.0,0.,12.0
1980-11-14 18:14:37.280 ,4,0,0.,12.0,0.,12.0,0.,12.0,0.,12.0
1980-11-14 18:14:49.280 ,4,0,0.,12.0,0.,12.0,0.,12.0,0.,12.0
1980-11-14 18:15:01.280 ,3,1,0.,12.0,0.,12.0,0.,12.0,0.,12.0
1980-11-14 18:15:13.280 ,3,1,0.,12.0,0.,12.0,0.,12.0,0.,12.0
1980-11-14 18:15:25.280 ,3,0,0.,12.0,0.,12.0,0.,12.0,0.,12.0
1980-11-14 18:15:37.280 ,3,0,0.,12.0,0.,12.0,0.,12.0,0.,12.0
1980-11-14 18:15:49.280 ,2,1,0.,12.0,0.,12.0,0.,12.0,0.,12.0
1980-11-14 18:16:01.280 ,2,1,0.,12.0,0.,12.0,0.,12.0,0.,12.0
1980-11-14 18:16:13.280 ,2,0,0.,12.0,0.,12.0,0.,12.0,0.,12.0
1980-11-14 18:16:25.280 ,2,0,0.,12.0,0.,12.0,0.,12.0,0.,12.0
1980-11-14 18:16:37.280 ,1,1,0.,12.0,0.,12.0,0.,12.0,0.,12.0
1980-11-14 18:16:49.280 ,1,1,0.,12.0,0.,12.0,0.,12.0,0.,12.0
1980-11-14 18:17:01.280 ,1,0,0.,12.0,0.,12.0,0.,12.0,0.,12.0
1980-11-14 18:17:13.280 ,1,0,0.,12.0,0.,12.0,0.,12.0,0.,12.0
1980-11-14 18:17:25.270 ,0,1,0.,12.0,0.,12.0,0.,12.0,0.,12.0
1980-11-14 18:17:37.270 ,0,1,0.,12.0,0.,12.0,0.,12.0,0.,12.0
1980-11-14 18:17:49.270 ,0,0,0.,12.0,0.,12.0,0.,12.0,0.,12.0
1980-11-14 18:18:01.270 ,0,0,0.,12.0,0.,12.0,0.,12.0,0.,12.0
1980-11-14 18:18:13.270 ,0,1,0.,12.0,0.,12.0,0.,12.0,0.,12.0
1980-11-14 18:18:25.270 ,0,1,0.,12.0,0.,12.0,0.,12.0,0.,12.0
1980-11-14 18:18:37.270 ,0,0,0.,12.0,0.,12.0,0.,12.0,0.,12.0
1980-11-14 18:18:49.270 ,0,0,0.,12.0,0.,12.0,0.,12.0,0.,12.0
1980-11-14 18:19:01.270 ,1,1,0.,12.0,0.,12.0,0.,12.0,0.,12.0
1980-11-14 18:19:13.270 ,1,1,0.,12.0,0.,12.0,0.,12.0,0.,12.0
1980-11-14 18:19:25.270 ,1,0,0.,12.0,0.,12.0,0.,12.0,0.,12.0
1980-11-14 18:19:37.270 ,1,0,0.,12.0,0.,12.0,0.,12.0,0.,12.0
1980-11-14 18:19:49.270 ,2,1,0.,12.0,0.,12.0,0.,12.0,0.,12.0
1980-11-14 18:20:01.270 ,2,1,0.,12.0,0.,12.0,0.,12.0,0.,12.0
1980-11-14 18:20:13.270 ,2,0,0.,12.0,0.,12.0,0.,12.0,0.,12.0
1980-11-14 18:20:25.270 ,2,0,0.,12.0,0.,12.0,0.,12.0,0.,12.0
1980-11-14 18:20:37.270 ,3,1,0.,12.0,0.,12.0,0.,12.0,0.,12.0
1980-11-14 18:20:49.270 ,3,1,0.,12.0,0.,12.0,0.,12.0,0.,12.0
1980-11-14 18:21:01.270 ,3,0,0.,12.0,0.,12.0,0.,12.0,0.,12.0
1980-11-14 18:21:13.270 ,3,0,0.,12.0,0.,12.0,0.,12.0,0.,12.0
1980-11-14 18:21:25.270 ,4,1,0.,12.0,0.,12.0,0.,12.0,0.,12.0
1980-11-14 18:21:37.270 ,4,1,0.,12.0,0.,12.0,0.,12.0,0.,12.0
1980-11-14 18:21:49.270 ,4,0,0.,12.0,0.,12.0,0.,12.0,0.,12.0
1980-11-14 18:22:01.270 ,4,0,0.,12.0,0.,12.0,0.,12.0,0.,12.0
1980-11-14 18:22:13.270 ,5,1,0.,12.0,0.,12.0,0.,12.0,0.,12.0
1980-11-14 18:22:25.270 ,5,1,0.,12.0,0.,12.0,0.,12.0,0.,12.0
1980-11-14 18:22:37.270 ,5,0,0.,12.0,0.,12.0,0.,12.0,0.,12.0
1980-11-14 18:22:49.270 ,5,0,0.,12.0,0.,12.0,0.,12.0,0.,12.0
1980-11-14 18:23:01.270 ,6,1,0.,12.0,0.,12.0,0.,12.0,0.,12.0
1980-11-14 18:23:13.270 ,6,1,0.,12.0,0.,12.0,0.,12.0,0.,12.0
1980-11-14 18:23:25.270 ,6,0,0.,12.0,0.,12.0,0.,12.0,0.,12.0
1980-11-14 18:23:37.270 ,6,0,0.,12.0,0.,12.0,0.,12.0,0.,12.0
1980-11-14 18:23:49.270 ,7,1,0.,12.0,0.,12.0,0.,12.0,0.,12.0
1980-11-14 18:24:01.270 ,7,1,0.,12.0,5.,12.0,0.,12.0,0.,12.0
1980-11-14 18:24:13.270 ,7,0,0.,12.0,1.,12.0,0.,12.0,0.,12.0
1980-11-14 18:24:25.270 ,7,0,0.,12.0,2.,12.0,0.,12.0,0.,12.0
1980-11-14 18:24:37.270 ,7,1,0.,12.0,2.,12.0,0.,12.0,0.,12.0
1980-11-14 18:24:49.270 ,7,1,0.,12.0,4.,12.0,0.,12.0,0.,12.0
1980-11-14 18:25:01.270 ,7,0,0.,12.0,3.,12.0,0.,12.0,0.,12.0
1980-11-14 18:25:13.270 ,7,0,0.,12.0,2.,12.0,0.,12.0,0.,12.0
1980-11-14 18:25:25.270 ,6,1,0.,12.0,6.,12.0,0.,12.0,0.,12.0
1980-11-14 18:25:37.270 ,6,1,0.,12.0,0.,12.0,0.,12.0,0.,12.0
1980-11-14 18:25:49.270 ,6,0,0.,12.0,0.,12.0,0.,12.0,0.,12.0
1980-11-14 18:26:01.270 ,6,0,0.,12.0,0.,12.0,0.,12.0,0.,12.0
1980-11-14 18:26:13.270 ,5,1,0.,12.0,0.,12.0,0.,12.0,0.,12.0
1980-11-14 18:26:25.270 ,5,1,0.,12.0,0.,12.0,0.,12.0,0.,12.0
1980-11-14 18:26:37.270 ,5,0,0.,12.0,0.,12.0,0.,12.0,0.,12.0
1980-11-14 18:26:49.270 ,5,0,0.,12.0,0.,12.0,0.,12.0,0.,12.0
1980-11-14 18:27:01.270 ,4,1,0.,12.0,0.,12.0,0.,12.0,0.,12.0
1980-11-14 18:27:13.270 ,4,1,0.,12.0,0.,12.0,0.,12.0,0.,12.0
1980-11-14 18:27:25.270 ,4,0,0.,12.0,0.,12.0,0.,12.0,0.,12.0
1980-11-14 18:27:37.270 ,4,0,0.,12.0,0.,12.0,0.,12.0,0.,12.0
1980-11-14 18:27:49.270 ,3,1,0.,12.0,0.,12.0,0.,12.0,0.,12.0
1980-11-14 18:28:01.270 ,3,1,0.,12.0,0.,12.0,0.,12.0,0.,12.0
1980-11-14 18:28:13.270 ,3,0,0.,12.0,0.,12.0,0.,12.0,0.,12.0
1980-11-14 18:28:25.270 ,3,0,0.,12.0,0.,12.0,0.,12.0,0.,12.0
1980-11-14 18:28:37.270 ,2,1,0.,12.0,0.,12.0,0.,12.0,0.,12.0
1980-11-14 18:28:49.270 ,2,1,0.,12.0,0.,12.0,0.,12.0,0.,12.0
1980-11-14 18:29:01.270 ,2,0,0.,12.0,0.,12.0,0.,12.0,0.,12.0
1980-11-14 18:29:13.270 ,2,0,0.,12.0,0.,12.0,0.,12.0,0.,12.0
1980-11-14 18:29:25.270 ,1,1,0.,12.0,0.,12.0,0.,12.0,0.,12.0
1980-11-14 18:29:37.270 ,1,1,0.,12.0,0.,12.0,0.,12.0,0.,12.0
1980-11-14 18:29:49.270 ,1,0,0.,12.0,0.,12.0,0.,12.0,0.,12.0
1980-11-14 18:30:01.270 ,1,0,0.,12.0,0.,12.0,0.,12.0,0.,12.0
1980-11-14 18:30:13.270 ,0,1,0.,12.0,0.,12.0,0.,12.0,0.,12.0
1980-11-14 18:30:25.270 ,0,1,0.,12.0,0.,12.0,0.,12.0,0.,12.0
1980-11-14 18:30:37.270 ,0,0,0.,12.0,0.,12.0,0.,12.0,0.,12.0
1980-11-14 18:30:49.270 ,0,0,0.,12.0,0.,12.0,0.,12.0,0.,12.0
1980-11-14 18:31:01.270 ,0,1,0.,12.0,0.,12.0,0.,12.0,0.,12.0
1980-11-14 18:31:13.270 ,0,1,0.,12.0,0.,12.0,0.,12.0,0.,12.0
1980-11-14 18:31:25.270 ,0,0,0.,12.0,0.,12.0,0.,12.0,0.,12.0
1980-11-14 18:31:37.270 ,0,0,0.,12.0,0.,12.0,0.,12.0,0.,12.0
1980-11-14 18:31:49.270 ,1,1,0.,12.0,0.,12.0,0.,12.0,0.,12.0
1980-11-14 18:32:01.270 ,1,1,0.,12.0,0.,12.0,0.,12.0,0.,12.0
1980-11-14 18:32:13.270 ,1,0,0.,12.0,0.,12.0,0.,12.0,0.,12.0
1980-11-14 18:32:25.270 ,1,0,0.,12.0,0.,12.0,0.,12.0,0.,12.0
1980-11-14 18:32:37.270 ,2,1,0.,12.0,0.,12.0,0.,12.0,0.,12.0
1980-11-14 18:32:49.270 ,2,1,0.,12.0,0.,12.0,0.,12.0,0.,12.0
1980-11-14 18:33:01.270 ,2,0,0.,12.0,0.,12.0,0.,12.0,0.,12.0
1980-11-14 18:33:13.270 ,2,0,0.,12.0,0.,12.0,0.,12.0,0.,12.0
1980-11-14 18:33:25.270 ,3,1,0.,12.0,0.,12.0,0.,12.0,0.,12.0
1980-11-14 18:33:37.270 ,3,1,0.,12.0,0.,12.0,0.,12.0,0.,12.0
1980-11-14 18:33:49.270 ,3,0,0.,12.0,0.,12.0,0.,12.0,0.,12.0
1980-11-14 18:34:01.270 ,3,0,0.,12.0,0.,12.0,0.,12.0,0.,12.0
1980-11-14 18:34:13.270 ,4,1,0.,12.0,0.,12.0,0.,12.0,0.,12.0
1980-11-14 18:34:25.270 ,4,1,0.,12.0,0.,12.0,0.,12.0,0.,12.0
1980-11-14 18:34:37.270 ,4,0,0.,12.0,0.,12.0,0.,12.0,0.,12.0
1980-11-14 18:34:49.270 ,4,0,0.,12.0,0.,12.0,0.,12.0,0.,12.0
1980-11-14 18:35:01.270 ,5,1,0.,12.0,0.,12.0,0.,12.0,0.,12.0
1980-11-14 18:35:13.270 ,5,1,0.,12.0,0.,12.0,0.,12.0,0.,12.0
1980-11-14 18:35:25.270 ,5,0,0.,12.0,0.,12.0,0.,12.0,0.,12.0
1980-11-14 18:35:37.270 ,5,0,0.,12.0,0.,12.0,0.,12.0,0.,12.0
1980-11-14 18:35:49.270 ,6,1,0.,12.0,0.,12.0,0.,12.0,0.,12.0
1980-11-14 18:36:01.270 ,6,1,0.,12.0,0.,12.0,0.,12.0,0.,12.0
1980-11-14 18:36:13.270 ,6,0,0.,12.0,0.,12.0,0.,12.0,0.,12.0
1980-11-14 18:36:25.270 ,6,0,0.,12.0,0.,12.0,0.,12.0,0.,12.0
1980-11-14 18:36:37.270 ,7,1,0.,12.0,0.,12.0,0.,12.0,0.,12.0
1980-11-14 18:36:49.270 ,7,1,0.,12.0,4.,12.0,0.,12.0,0.,12.0
1980-11-14 18:37:01.270 ,7,0,0.,12.0,2.,12.0,0.,12.0,0.,12.0
1980-11-14 18:37:13.270 ,7,0,0.,12.0,5.,12.0,0.,12.0,0.,12.0
1980-11-14 18:37:25.270 ,7,1,0.,12.0,3.,12.0,0.,12.0,0.,12.0
1980-11-14 18:37:37.270 ,7,1,0.,12.0,4.,12.0,0.,12.0,0.,12.0
1980-11-14 18:37:49.270 ,7,0,0.,12.0,5.,12.0,0.,12.0,0.,12.0
1980-11-14 18:38:01.270 ,7,0,0.,12.0,3.,12.0,0.,12.0,0.,12.0
1980-11-14 18:38:13.270 ,6,1,0.,12.0,3.,12.0,0.,12.0,0.,12.0
1980-11-14 18:38:25.270 ,6,1,0.,12.0,2.,12.0,0.,12.0,0.,12.0
1980-11-14 18:38:37.270 ,6,0,0.,12.0,0.,12.0,0.,12.0,0.,12.0
1980-11-14 18:38:49.270 ,6,0,0.,12.0,0.,12.0,0.,12.0,0.,12.0
1980-11-14 18:39:01.270 ,5,1,0.,12.0,0.,12.0,0.,12.0,0.,12.0
1980-11-14 18:39:13.270 ,5,1,0.,12.0,0.,12.0,0.,12.0,0.,12.0
1980-11-14 18:39:25.270 ,5,0,0.,12.0,0.,12.0,0.,12.0,0.,12.0
1980-11-14 18:39:37.270 ,5,0,0.,12.0,0.,12.0,0.,12.0,0.,12.0
1980-11-14 18:39:49.270 ,4,1,0.,12.0,0.,12.0,0.,12.0,0.,12.0
1980-11-14 18:40:01.270 ,4,1,0.,12.0,0.,12.0,0.,12.0,0.,12.0
1980-11-14 18:40:13.270 ,4,0,0.,12.0,0.,12.0,0.,12.0,0.,12.0
1980-11-14 18:40:25.270 ,4,0,0.,12.0,0.,12.0,0.,12.0,0.,12.0
1980-11-14 18:40:37.270 ,3,1,0.,12.0,0.,12.0,0.,12.0,0.,12.0
1980-11-14 18:40:49.270 ,3,1,0.,12.0,0.,12.0,0.,12.0,0.,12.0
1980-11-14 18:41:01.270 ,3,0,0.,12.0,0.,12.0,0.,12.0,0.,12.0
1980-11-14 18:41:13.270 ,3,0,0.,12.0,0.,12.0,0.,12.0,0.,12.0
1980-11-14 18:41:25.270 ,2,1,0.,12.0,0.,12.0,0.,12.0,0.,12.0
1980-11-14 18:41:37.270 ,2,1,0.,12.0,0.,12.0,0.,12.0,0.,12.0
1980-11-14 18:41:49.270 ,2,0,0.,12.0,0.,12.0,0.,12.0,0.,12.0
1980-11-14 18:42:01.270 ,2,0,0.,12.0,0.,12.0,0.,12.0,0.,12.0
1980-11-14 18:42:13.270 ,1,1,0.,12.0,0.,12.0,0.,12.0,0.,12.0
1980-11-14 18:42:25.270 ,1,1,0.,12.0,0.,12.0,0.,12.0,0.,12.0
1980-11-14 18:42:37.270 ,1,0,0.,12.0,0.,12.0,0.,12.0,0.,12.0
1980-11-14 18:42:49.270 ,1,0,0.,12.0,0.,12.0,0.,12.0,0.,12.0
1980-11-14 18:43:01.270 ,0,1,0.,12.0,0.,12.0,0.,12.0,0.,12.0
1980-11-14 18:43:13.270 ,0,1,0.,12.0,0.,12.0,0.,12.0,0.,12.0
1980-11-14 18:43:25.270 ,0,0,0.,12.0,0.,12.0,0.,12.0,0.,12.0
1980-11-14 18:43:37.270 ,0,0,0.,12.0,0.,12.0,0.,12.0,0.,12.0
1980-11-14 18:43:49.270 ,0,1,0.,12.0,0.,12.0,0.,12.0,0.,12.0
1980-11-14 18:44:01.270 ,0,1,0.,12.0,0.,12.0,0.,12.0,0.,12.0
1980-11-14 18:44:13.270 ,0,0,0.,12.0,0.,12.0,0.,12.0,0.,12.0
1980-11-14 18:44:25.270 ,0,0,0.,12.0,0.,12.0,0.,12.0,0.,12.0
1980-11-14 18:44:37.270 ,1,1,0.,12.0,0.,12.0,0.,12.0,0.,12.0
1980-11-14 18:44:49.270 ,1,1,0.,12.0,0.,12.0,0.,12.0,0.,12.0
1980-11-14 18:45:01.270 ,1,0,0.,12.0,0.,12.0,0.,12.0,0.,12.0
1980-11-14 18:45:13.270 ,1,0,0.,12.0,0.,12.0,0.,12.0,0.,12.0
1980-11-14 18:45:25.270 ,2,1,0.,12.0,0.,12.0,0.,12.0,0.,12.0
1980-11-14 18:45:37.270 ,2,1,0.,12.0,0.,12.0,0.,12.0,0.,12.0
1980-11-14 18:45:49.270 ,2,0,0.,12.0,0.,12.0,0.,12.0,0.,12.0
1980-11-14 18:46:01.270 ,2,0,0.,12.0,0.,12.0,0.,12.0,0.,12.0
1980-11-14 18:46:13.270 ,3,1,0.,12.0,0.,12.0,0.,12.0,0.,12.0
1980-11-14 18:46:25.270 ,3,1,0.,12.0,0.,12.0,0.,12.0,0.,12.0
1980-11-14 18:46:37.270 ,3,0,0.,12.0,0.,12.0,0.,12.0,0.,12.0
1980-11-14 18:46:49.270 ,3,0,0.,12.0,0.,12.0,0.,12.0,0.,12.0
1980-11-14 18:47:01.270 ,4,1,0.,12.0,0.,12.0,0.,12.0,0.,12.0
1980-11-14 18:47:13.270 ,4,1,0.,12.0,0.,12.0,0.,12.0,0.,12.0
1980-11-14 18:47:25.270 ,4,0,0.,12.0,0.,12.0,0.,12.0,0.,12.0
1980-11-14 18:47:37.270 ,4,0,0.,12.0,0.,12.0,0.,12.0,0.,12.0
1980-11-14 18:47:49.270 ,5,1,0.,12.0,0.,12.0,0.,12.0,0.,12.0
1980-11-14 18:48:01.270 ,5,1,0.,12.0,0.,12.0,0.,12.0,0.,12.0
1980-11-14 18:48:13.270 ,5,0,0.,12.0,0.,12.0,0.,12.0,0.,12.0
1980-11-14 18:48:25.270 ,5,0,0.,12.0,0.,12.0,0.,12.0,0.,12.0
1980-11-14 18:48:37.270 ,6,1,0.,12.0,0.,12.0,0.,12.0,0.,12.0
1980-11-14 18:48:49.270 ,6,1,0.,12.0,0.,12.0,0.,12.0,0.,12.0
1980-11-14 18:49:01.270 ,6,0,0.,12.0,0.,12.0,0.,12.0,0.,12.0
1980-11-14 18:49:13.270 ,6,0,0.,12.0,0.,12.0,0.,12.0,0.,12.0
1980-11-14 18:49:25.270 ,7,1,0.,12.0,0.,12.0,0.,12.0,0.,12.0
1980-11-14 18:49:37.270 ,7,1,0.,12.0,2.,12.0,0.,12.0,0.,12.0
1980-11-14 18:49:49.270 ,7,0,0.,12.0,4.,12.0,0.,12.0,0.,12.0
1980-11-14 18:50:01.270 ,7,0,0.,12.0,4.,12.0,0.,12.0,0.,12.0
1980-11-14 18:50:13.270 ,7,1,0.,12.0,4.,12.0,0.,12.0,0.,12.0
1980-11-14 18:50:25.270 ,7,1,0.,12.0,5.,12.0,0.,12.0,0.,12.0
1980-11-14 18:50:37.270 ,7,0,0.,12.0,4.,12.0,0.,12.0,0.,12.0
1980-11-14 18:50:49.270 ,7,0,0.,12.0,0.,12.0,0.,12.0,0.,12.0
1980-11-14 18:51:01.270 ,6,1,0.,12.0,4.,12.0,0.,12.0,0.,12.0
1980-11-14 18:51:13.270 ,6,1,0.,12.0,3.,12.0,0.,12.0,0.,12.0
1980-11-14 18:51:25.270 ,6,0,0.,12.0,0.,12.0,0.,12.0,1.,12.0
1980-11-14 18:51:37.270 ,6,0,0.,12.0,0.,12.0,0.,12.0,0.,12.0
1980-11-14 18:51:49.270 ,5,1,0.,12.0,0.,12.0,0.,12.0,0.,12.0
1980-11-14 18:52:01.270 ,5,1,0.,12.0,0.,12.0,0.,12.0,0.,12.0
1980-11-14 18:52:13.270 ,5,0,0.,12.0,0.,12.0,0.,12.0,0.,12.0
1980-11-14 18:52:25.270 ,5,0,0.,12.0,0.,12.0,0.,12.0,0.,12.0
1980-11-14 18:52:37.270 ,4,1,0.,12.0,0.,12.0,0.,12.0,0.,12.0
1980-11-14 18:52:49.270 ,4,1,0.,12.0,0.,12.0,0.,12.0,0.,12.0
1980-11-14 18:53:01.270 ,4,0,0.,12.0,0.,12.0,0.,12.0,0.,12.0
1980-11-14 18:53:13.270 ,4,0,0.,12.0,0.,12.0,0.,12.0,0.,12.0
1980-11-14 18:53:25.270 ,3,1,0.,12.0,0.,12.0,0.,12.0,0.,12.0
1980-11-14 18:53:37.270 ,3,1,0.,12.0,0.,12.0,0.,12.0,0.,12.0
1980-11-14 18:53:49.270 ,3,0,0.,12.0,0.,12.0,0.,12.0,0.,12.0
1980-11-14 18:54:01.270 ,3,0,0.,12.0,0.,12.0,0.,12.0,0.,12.0
1980-11-14 18:54:13.270 ,2,1,0.,12.0,0.,12.0,0.,12.0,0.,12.0
1980-11-14 18:54:25.270 ,2,1,0.,12.0,0.,12.0,0.,12.0,0.,12.0
1980-11-14 18:54:37.270 ,2,0,0.,12.0,0.,12.0,0.,12.0,0.,12.0
1980-11-14 18:54:49.270 ,2,0,0.,12.0,0.,12.0,0.,12.0,0.,12.0
1980-11-14 18:55:01.270 ,1,1,0.,12.0,0.,12.0,0.,12.0,0.,12.0
1980-11-14 18:55:13.270 ,1,1,0.,12.0,0.,12.0,0.,12.0,0.,12.0
1980-11-14 18:55:25.270 ,1,0,0.,12.0,0.,12.0,0.,12.0,0.,12.0
1980-11-14 18:55:37.270 ,1,0,0.,12.0,0.,12.0,0.,12.0,0.,12.0
1980-11-14 18:55:49.270 ,0,1,0.,12.0,0.,12.0,0.,12.0,0.,12.0
1980-11-14 18:56:01.270 ,0,1,0.,12.0,0.,12.0,0.,12.0,0.,12.0
1980-11-14 18:56:13.270 ,0,0,0.,12.0,0.,12.0,0.,12.0,0.,12.0
1980-11-14 18:56:25.270 ,0,0,0.,12.0,0.,12.0,0.,12.0,0.,12.0
1980-11-14 18:56:37.270 ,0,1,0.,12.0,0.,12.0,0.,12.0,0.,12.0
1980-11-14 18:56:49.270 ,0,1,0.,12.0,0.,12.0,0.,12.0,0.,12.0
1980-11-14 18:57:01.270 ,0,0,0.,12.0,0.,12.0,0.,12.0,0.,12.0
1980-11-14 18:57:13.270 ,0,0,0.,12.0,0.,12.0,0.,12.0,0.,12.0
1980-11-14 18:57:25.270 ,1,1,0.,12.0,0.,12.0,0.,12.0,0.,12.0
1980-11-14 18:57:37.270 ,1,1,0.,12.0,0.,12.0,0.,12.0,0.,12.0
1980-11-14 18:57:49.270 ,1,0,0.,12.0,0.,12.0,0.,12.0,0.,12.0
1980-11-14 18:58:01.270 ,1,0,0.,12.0,0.,12.0,0.,12.0,0.,12.0
1980-11-14 18:58:13.270 ,2,1,0.,12.0,0.,12.0,0.,12.0,0.,12.0
1980-11-14 18:58:25.270 ,2,1,0.,12.0,0.,12.0,0.,12.0,0.,12.0
1980-11-14 18:58:37.270 ,2,0,0.,12.0,0.,12.0,0.,12.0,0.,12.0
1980-11-14 18:58:49.270 ,2,0,0.,12.0,0.,12.0,0.,12.0,0.,12.0
1980-11-14 18:59:01.270 ,3,1,0.,12.0,0.,12.0,0.,12.0,0.,12.0
1980-11-14 18:59:13.270 ,3,1,0.,12.0,0.,12.0,0.,12.0,0.,12.0
1980-11-14 18:59:25.270 ,3,0,0.,12.0,0.,12.0,0.,12.0,0.,12.0
1980-11-14 18:59:37.270 ,3,0,0.,12.0,0.,12.0,0.,12.0,0.,12.0
1980-11-14 18:59:49.270 ,4,1,0.,12.0,0.,12.0,0.,12.0,0.,12.0
1980-11-14 19:00:01.270 ,4,1,0.,12.0,0.,12.0,0.,12.0,0.,12.0
1980-11-14 19:00:13.280 ,4,0,0.,12.0,0.,12.0,0.,12.0,0.,12.0
1980-11-14 19:00:25.280 ,4,0,0.,12.0,0.,12.0,0.,12.0,0.,12.0
1980-11-14 19:00:37.280 ,5,1,0.,12.0,0.,12.0,0.,12.0,0.,12.0
1980-11-14 19:00:49.280 ,5,1,0.,12.0,0.,12.0,0.,12.0,1.,12.0
1980-11-14 19:01:01.280 ,5,0,0.,12.0,0.,12.0,0.,12.0,0.,12.0
1980-11-14 19:01:13.280 ,5,0,0.,12.0,0.,12.0,0.,12.0,0.,12.0
1980-11-14 19:01:25.280 ,6,1,0.,12.0,0.,12.0,0.,12.0,0.,12.0
1980-11-14 19:01:37.280 ,6,1,0.,12.0,0.,12.0,0.,12.0,0.,12.0
1980-11-14 19:01:49.280 ,6,0,0.,12.0,0.,12.0,0.,12.0,0.,12.0
1980-11-14 19:02:01.280 ,6,0,0.,12.0,0.,12.0,0.,12.0,0.,12.0
1980-11-14 19:02:13.270 ,7,1,0.,12.0,0.,12.0,0.,12.0,0.,12.0
1980-11-14 19:02:25.280 ,7,1,0.,12.0,1.,12.0,0.,12.0,0.,12.0
1980-11-14 19:02:37.270 ,7,0,0.,12.0,3.,12.0,0.,12.0,0.,12.0
1980-11-14 19:02:49.280 ,7,0,0.,12.0,0.,12.0,0.,12.0,0.,12.0
1980-11-14 19:03:01.270 ,7,1,0.,12.0,2.,12.0,0.,12.0,0.,12.0
1980-11-14 19:03:13.280 ,7,1,0.,12.0,5.,12.0,0.,12.0,0.,12.0
1980-11-14 19:03:25.270 ,7,0,0.,12.0,6.,12.0,0.,12.0,0.,12.0
1980-11-14 19:03:37.280 ,7,0,0.,12.0,0.,12.0,0.,12.0,0.,12.0
1980-11-14 19:03:49.270 ,6,1,0.,12.0,9.,12.0,0.,12.0,0.,12.0
1980-11-14 19:04:01.280 ,6,1,0.,12.0,0.,12.0,0.,12.0,0.,12.0
1980-11-14 19:04:13.270 ,6,0,0.,12.0,0.,12.0,0.,12.0,0.,12.0
1980-11-14 19:04:25.270 ,6,0,0.,12.0,0.,12.0,0.,12.0,0.,12.0
1980-11-14 19:04:37.280 ,5,1,0.,12.0,0.,12.0,0.,12.0,0.,12.0
1980-11-14 19:04:49.280 ,5,1,0.,12.0,0.,12.0,0.,12.0,0.,12.0
1980-11-14 19:05:01.280 ,5,0,0.,12.0,0.,12.0,0.,12.0,0.,12.0
1980-11-14 19:05:13.280 ,5,0,0.,12.0,0.,12.0,0.,12.0,0.,12.0
1980-11-14 19:05:25.280 ,4,1,0.,12.0,0.,12.0,0.,12.0,0.,12.0
1980-11-14 19:05:37.280 ,4,1,0.,12.0,0.,12.0,0.,12.0,0.,12.0
1980-11-14 19:05:49.280 ,4,0,0.,12.0,0.,12.0,0.,12.0,0.,12.0
1980-11-14 19:06:01.280 ,4,0,0.,12.0,0.,12.0,0.,12.0,0.,12.0
1980-11-14 19:06:13.280 ,3,1,0.,12.0,0.,12.0,0.,12.0,0.,12.0
1980-11-14 19:06:25.280 ,3,1,0.,12.0,0.,12.0,0.,12.0,0.,12.0
1980-11-14 19:06:37.280 ,3,0,0.,12.0,0.,12.0,0.,12.0,0.,12.0
1980-11-14 19:06:49.280 ,3,0,0.,12.0,0.,12.0,0.,12.0,0.,12.0
1980-11-14 19:07:01.280 ,0,0,,0,,0,,0,,0
1980-11-14 19:07:13.280 ,0,0,,0,,0,,0,,0
1980-11-14 19:07:25.280 ,0,0,,0,,0,,0,,0
1980-11-14 19:07:37.280 ,0,0,,0,,0,,0,,0
1980-11-14 19:07:01.280 ,0,0,,0,,0,,0,,0
1980-11-14 19:07:13.280 ,0,0,,0,,0,,0,,0
1980-11-14 19:07:25.280 ,0,0,,0,,0,,0,,0
1980-11-14 19:07:37.280 ,0,0,,0,,0,,0,,0
1980-11-14 19:07:01.880 ,2,1,0.,12.0,0.,12.0,0.,12.0,0.,12.0
1980-11-14 19:07:13.880 ,2,1,0.,12.0,0.,12.0,0.,12.0,0.,12.0
1980-11-14 19:07:25.280 ,2,0,0.,12.0,0.,12.0,0.,12.0,0.,12.0
1980-11-14 19:07:37.280 ,2,0,0.,12.0,0.,12.0,0.,12.0,0.,12.0
1980-11-14 19:07:49.280 ,1,1,0.,12.0,0.,12.0,0.,12.0,0.,12.0
1980-11-14 19:08:01.280 ,1,1,0.,12.0,0.,12.0,0.,12.0,0.,12.0
1980-11-14 19:08:13.280 ,1,0,0.,12.0,0.,12.0,0.,12.0,0.,12.0
1980-11-14 19:08:25.280 ,1,0,0.,12.0,0.,12.0,0.,12.0,0.,12.0
1980-11-14 19:08:37.280 ,0,1,0.,12.0,0.,12.0,0.,12.0,0.,12.0
1980-11-14 19:08:49.280 ,0,1,0.,12.0,0.,12.0,0.,12.0,0.,12.0
1980-11-14 19:09:01.280 ,0,0,0.,12.0,0.,12.0,0.,12.0,0.,12.0
1980-11-14 19:09:13.280 ,0,0,0.,12.0,0.,12.0,0.,12.0,0.,12.0
1980-11-14 19:09:25.280 ,0,1,0.,12.0,0.,12.0,0.,12.0,0.,12.0
1980-11-14 19:09:37.280 ,0,1,0.,12.0,0.,12.0,0.,12.0,0.,12.0
1980-11-14 19:09:49.280 ,0,0,0.,12.0,0.,12.0,0.,12.0,0.,12.0
1980-11-14 19:10:01.280 ,0,0,0.,12.0,0.,12.0,0.,12.0,0.,12.0
1980-11-14 19:10:13.280 ,1,1,0.,12.0,0.,12.0,0.,12.0,0.,12.0
1980-11-14 19:10:25.280 ,1,1,0.,12.0,0.,12.0,0.,12.0,0.,12.0
1980-11-14 19:10:37.280 ,1,0,0.,12.0,0.,12.0,0.,12.0,0.,12.0
1980-11-14 19:10:49.280 ,1,0,0.,12.0,0.,12.0,0.,12.0,0.,12.0
1980-11-14 19:11:01.280 ,2,1,0.,12.0,0.,12.0,0.,12.0,0.,12.0
1980-11-14 19:11:13.280 ,2,1,0.,12.0,0.,12.0,0.,12.0,0.,12.0
1980-11-14 19:11:25.280 ,2,0,0.,12.0,0.,12.0,0.,12.0,0.,12.0
1980-11-14 19:11:37.280 ,2,0,0.,12.0,0.,12.0,0.,12.0,0.,12.0
1980-11-14 19:11:49.280 ,3,1,0.,12.0,0.,12.0,0.,12.0,0.,12.0
1980-11-14 19:12:01.280 ,3,1,0.,12.0,0.,12.0,0.,12.0,0.,12.0
1980-11-14 19:12:13.280 ,3,0,0.,12.0,0.,12.0,0.,12.0,0.,12.0
1980-11-14 19:12:25.280 ,3,0,0.,12.0,0.,12.0,0.,12.0,0.,12.0
1980-11-14 19:12:37.280 ,4,1,0.,12.0,0.,12.0,0.,12.0,0.,12.0
1980-11-14 19:12:49.280 ,4,1,0.,12.0,0.,12.0,0.,12.0,0.,12.0
1980-11-14 19:13:01.280 ,4,0,0.,12.0,0.,12.0,0.,12.0,0.,12.0
1980-11-14 19:13:13.280 ,4,0,0.,12.0,0.,12.0,0.,12.0,0.,12.0
1980-11-14 19:13:25.280 ,5,1,0.,12.0,0.,12.0,0.,12.0,0.,12.0
1980-11-14 19:13:37.280 ,5,1,0.,12.0,0.,12.0,0.,12.0,0.,12.0
1980-11-14 19:13:49.280 ,5,0,0.,12.0,0.,12.0,0.,12.0,0.,12.0
1980-11-14 19:14:01.280 ,5,0,0.,12.0,0.,12.0,0.,12.0,0.,12.0
1980-11-14 19:14:13.280 ,6,1,0.,12.0,0.,12.0,0.,12.0,0.,12.0
1980-11-14 19:14:25.280 ,6,1,0.,12.0,0.,12.0,0.,12.0,0.,12.0
1980-11-14 19:14:37.280 ,6,0,0.,12.0,0.,12.0,0.,12.0,0.,12.0
1980-11-14 19:14:49.280 ,6,0,0.,12.0,0.,12.0,0.,12.0,0.,12.0
1980-11-14 19:15:01.280 ,7,1,0.,12.0,0.,12.0,0.,12.0,0.,12.0
1980-11-14 19:15:13.280 ,7,1,0.,12.0,2.,12.0,0.,12.0,0.,12.0
1980-11-14 19:15:25.280 ,7,0,0.,12.0,4.,12.0,0.,12.0,0.,12.0
1980-11-14 19:15:37.280 ,7,0,0.,12.0,4.,12.0,0.,12.0,0.,12.0
1980-11-14 19:15:49.280 ,7,1,0.,12.0,3.,12.0,0.,12.0,0.,12.0
1980-11-14 19:16:01.280 ,7,1,0.,12.0,2.,12.0,0.,12.0,0.,12.0